Location: *
(46.3500°N, 10.9000°E)
Time: 21:39:23
(UTC+00:00)

A-11 Canister half - Pass Details

Date: 28 April 2021
Orbit: 1526 x 1682 km, 47.3° (Epoch: 13 May)

Event Time Altitude Azimuth Distance (km) Brightness Sun altitude
Rises 20:48:35 0° 286° (WNW) 4,939 12.5 -21.0°
Reaches altitude 10° 20:54:35 10° 259° (W) 3,940 11.4 -21.6°
Maximum altitude 20:57:58 12° 239° (WSW) 3,757 11.1 -22.0°
Drops below altitude 10° 21:01:20 10° 219° (SW) 3,915 11.0 -22.3°
Enters shadow 21:04:49 - 202° (SSW) 4,391 11.1 -22.6°
Sets 21:07:18 0° 192° (SSW) 4,869 - -22.9°
